K9MWM-1 Weather Reports


Display with metric or nautical units.
time (UTC)temp
F
wind
direction
speed
MPH
gust
MPH
rain 1hr
in
rain 24hr
in
rain mn
in
humidity
%
barometer
mb
20260509071907 49 90 0.0 0.0 0.00 0.00 0.00
20260509071354 49 337 0.0 0.0 0.00 0.00 0.00
20260509065816 50 337 0.0 0.0 0.00 0.00 0.00
20260509065306 51 58 0.0 0.0 0.00 0.00 0.00
20260509064750 51 252 0.0 0.0 0.00 0.00 0.00
20260509064237 52 91 0.0 0.0 0.00 0.00 0.00
20260509063725 52 337 0.0 0.0 0.00 0.00 0.00
20260509063212 53 337 0.0 0.0 0.00 0.00 0.00
20260509062659 53 309 0.0 0.0 0.00 0.00 0.00
20260509062146 54 241 0.0 0.0 0.00 0.00 0.00
20260509061633 54 78 0.0 0.0 0.00 0.00 0.00
20260509061120 55 260 0.0 0.0 0.00 0.00 0.00
20260509060607 55 100 0.0 0.0 0.00 0.00 0.00
20260509060055 55 337 0.0 0.0 0.00 0.00 0.00
20260509055542 55 348 0.0 0.0 0.00 0.00 0.00
20260509055029 55 81 0.0 0.0 0.00 0.00 0.00
20260509054516 55 337 0.0 0.0 0.00 0.00 0.00
20260509054003 55 337 0.0 0.0 0.00 0.00 0.00
20260509053451 55 337 0.0 0.0 0.00 0.00 0.00
20260509052938 55 348 0.0 0.0 0.00 0.00 0.00
20260509052425 55 337 0.0 0.0 0.00 0.00 0.00
20260509051912 55 337 0.0 0.0 0.00 0.00 0.00
20260509051359 56 87 0.0 0.0 0.00 0.00 0.00
20260509050846 56 270 0.0 0.0 0.00 0.00 0.00
20260509050333 56 0 0.0 0.0 0.00 0.00 0.00
20260509045821 57 11 0.0 0.0 0.00 0.00 0.00
20260509045308 57 213 0.0 0.0 0.00 0.00 0.00
20260509044755 57 337 0.0 0.0 0.00 0.00 0.00
20260509044242 58 100 0.0 0.0 0.00 0.00 0.00
20260509043729 58 19 0.0 0.0 0.00 0.00 0.00
20260509043216 58 125 0.0 0.0 0.00 0.00 0.00
20260509042704 58 337 0.0 0.0 0.00 0.00 0.00
20260509041639 58 337 0.0 0.0 0.00 0.00 0.00
20260509041125 58 247 0.0 0.0 0.00 0.00 0.00
20260509040612 58 213 0.0 0.0 0.00 0.00 0.00
20260509040059 58 137 0.0 0.0 0.00 0.00 0.00
20260509035546 59 337 0.0 0.0 0.00 0.00 0.00
20260509034521 59 1 0.0 0.0 0.00 0.00 0.00
20260509034008 60 337 0.0 0.0 0.00 0.00 0.00
20260509033455 59 135 0.0 0.0 0.00 0.00 0.00
20260509032430 59 142 0.0 0.0 0.00 0.00 0.00
20260509031917 59 337 0.0 0.0 0.00 0.00 0.00
20260509031404 59 135 0.0 0.0 0.00 0.00 0.00
20260509030851 60 9 0.0 0.0 0.00 0.00 0.00
20260509030338 60 43 0.0 0.0 0.00 0.00 0.00
20260509025825 61 199 0.0 0.0 0.00 0.00 0.00
20260509025312 61 112 0.0 0.0 0.00 0.00 0.00
20260509024800 62 225 0.0 0.0 0.00 0.00 0.00
20260509022709 64 252 0.0 0.0 0.00 0.00 0.00
20260509022156 64 163 0.0 0.0 0.00 0.00 0.00
20260509021643 64 78 0.0 0.0 0.00 0.00 0.00
20260509021130 66 135 0.0 0.0 0.00 0.00 0.00
20260509020617 67 135 0.0 0.0 0.00 0.00 0.00
20260509020104 67 336 1.0 3.0 0.00 0.00 0.00
20260509015551 67 319 0.0 0.0 0.00 0.00 0.00
20260509015038 68 326 0.0 2.0 0.00 0.00 0.00
20260509014526 69 325 0.0 0.0 0.00 0.00 0.00
20260509014013 70 335 0.0 0.0 0.00 0.00 0.00
20260509013500 71 316 0.0 0.0 0.00 0.00 0.00
20260509012949 73 335 0.0 0.0 0.00 0.00 0.00
20260509012434 73 328 0.0 0.0 0.00 0.00 0.00
20260509011922 73 319 0.0 3.0 0.00 0.00 0.00
20260509010856 70 331 0.0 0.0 0.00 0.00 0.00
20260509010343 69 315 0.0 0.0 0.00 0.00 0.00
20260509005830 70 320 0.0 4.0 0.00 0.00 0.00
20260509005318 70 322 0.0 5.0 0.00 0.00 0.00
20260509004804 72 316 0.0 4.0 0.00 0.00 0.00
20260509004252 73 324 0.0 3.0 0.00 0.00 0.00
20260509003226 78 317 1.0 6.0 0.00 0.00 0.00
20260509002713 80 297 0.0 2.0 0.00 0.00 0.00
20260509002201 81 299 0.0 4.0 0.00 0.00 0.00
20260509001647 80 295 0.0 6.0 0.00 0.00 0.00
20260509001135 80 303 5.0 9.0 0.00 0.00 0.00
20260509000622 79 310 0.0 0.0 0.00 0.00 0.00
20260509000109 80 299 0.0 4.0 0.00 0.00 0.00
20260508235557 82 308 0.0 0.0 0.00 0.00 0.00
20260508235043 81 294 1.0 4.0 0.00 0.00 0.00
20260508233505 81 300 0.0 5.0 0.00 0.00 0.00
20260508232952 80 301 0.0 0.0 0.00 0.00 0.00
20260508232439 80 310 0.0 3.0 0.00 0.00 0.00
20260508231927 81 302 0.0 5.0 0.00 0.00 0.00
20260508231413 82 297 0.0 1.0 0.00 0.00 0.00
20260508230901 83 300 0.0 7.0 0.00 0.00 0.00
20260508230348 82 295 0.0 4.0 0.00 0.00 0.00
20260508225835 81 295 0.0 5.0 0.00 0.00 0.00
20260508225322 80 310 0.0 6.0 0.00 0.00 0.00
20260508224809 81 298 0.0 10.0 0.00 0.00 0.00
20260508224256 83 296 0.0 0.0 0.00 0.00 0.00
20260508223743 83 298 0.0 1.0 0.00 0.00 0.00
20260508223231 83 303 0.0 5.0 0.00 0.00 0.00
20260508222718 83 305 0.0 5.0 0.00 0.00 0.00
20260508222205 82 297 0.0 4.0 0.00 0.00 0.00
20260508221652 82 300 0.0 5.0 0.00 0.00 0.00
20260508221139 84 292 0.0 4.0 0.00 0.00 0.00
20260508220114 82 296 1.0 14.0 0.00 0.00 0.00
20260508215601 82 294 0.0 7.0 0.00 0.00 0.00
20260508215048 82 315 0.0 6.0 0.00 0.00 0.00
20260508214535 82 304 0.0 3.0 0.00 0.00 0.00
20260508214022 81 317 0.0 5.0 0.00 0.00 0.00
20260508213509 80 323 0.0 5.0 0.00 0.00 0.00
20260508212957 79 327 2.0 6.0 0.00 0.00 0.00
20260508212444 79 307 2.0 7.0 0.00 0.00 0.00
20260508211931 80 333 0.0 1.0 0.00 0.00 0.00
20260508211418 78 327 0.0 0.0 0.00 0.00 0.00
20260508210905 78 328 0.0 1.0 0.00 0.00 0.00
20260508210353 78 316 0.0 4.0 0.00 0.00 0.00
20260508205840 78 318 0.0 8.0 0.00 0.00 0.00
20260508205327 77 329 2.0 8.0 0.00 0.00 0.00
20260508204814 77 306 3.0 12.0 0.00 0.00 0.00
20260508203748 76 326 0.0 4.0 0.00 0.00 0.00
20260508203235 76 315 0.0 6.0 0.00 0.00 0.00
20260508202722 77 319 0.0 14.0 0.00 0.00 0.00
20260508202210 77 325 0.0 6.0 0.00 0.00 0.00
20260508201657 76 325 0.0 0.0 0.00 0.00 0.00
20260508200631 76 327 4.0 6.0 0.00 0.00 0.00
20260508195606 76 321 0.0 8.0 0.00 0.00 0.00
20260508195053 76 315 0.0 7.0 0.00 0.00 0.00
20260508194540 76 318 0.0 3.0 0.00 0.00 0.00
20260508194027 76 316 0.0 3.0 0.00 0.00 0.00
20260508193514 76 315 0.0 5.0 0.00 0.00 0.00
20260508193001 76 308 0.0 4.0 0.00 0.00 0.00
20260508192448 76 337 0.0 0.0 0.00 0.00 0.00
20260508191423 76 326 0.0 0.0 0.00 0.00 0.00
20260508190910 76 346 0.0 3.0 0.00 0.00 0.00
20260508190357 76 331 0.0 7.0 0.00 0.00 0.00
20260508185844 75 336 0.0 5.0 0.00 0.00 0.00
20260508185332 75 315 0.0 4.0 0.00 0.00 0.00
20260508184819 75 315 0.0 4.0 0.00 0.00 0.00
20260508184306 76 330 2.0 8.0 0.00 0.00 0.00
20260508183753 75 339 0.0 2.0 0.00 0.00 0.00
20260508183240 75 338 1.0 8.0 0.00 0.00 0.00
20260508182727 75 325 1.0 6.0 0.00 0.00 0.00
20260508182214 75 340 0.0 5.0 0.00 0.00 0.00
20260508181701 74 300 0.0 3.0 0.00 0.00 0.00
20260508181149 73 341 0.0 4.0 0.00 0.00 0.00
20260508180636 73 320 0.0 4.0 0.00 0.00 0.00
20260508180123 73 309 0.0 6.0 0.00 0.00 0.00
20260508175610 74 343 3.0 6.0 0.00 0.00 0.00
20260508175057 73 330 0.0 6.0 0.00 0.00 0.00
20260508174545 74 345 0.0 2.0 0.00 0.00 0.00
20260508174031 74 330 0.0 6.0 0.00 0.00 0.00
20260508173519 74 333 0.0 1.0 0.00 0.00 0.00
20260508173006 74 331 0.0 2.0 0.00 0.00 0.00
20260508172453 74 324 0.0 0.0 0.00 0.00 0.00
20260508171940 74 313 0.0 3.0 0.00 0.00 0.00
20260508171427 75 316 0.0 8.0 0.00 0.00 0.00
20260508170914 76 315 0.0 3.0 0.00 0.00 0.00
20260508170402 75 228 0.0 0.0 0.00 0.00 0.00
20260508165849 75 306 0.0 0.0 0.00 0.00 0.00
20260508165336 75 247 0.0 0.0 0.00 0.00 0.00
20260508164823 74 300 0.0 0.0 0.00 0.00 0.00
20260508164310 73 292 0.0 0.0 0.00 0.00 0.00
20260508163757 72 145 0.0 0.0 0.00 0.00 0.00
20260508163244 71 189 0.0 0.0 0.00 0.00 0.00
20260508162732 71 147 0.0 0.0 0.00 0.00 0.00
20260508161153 71 333 0.0 0.0 0.00 0.00 0.00
20260508160128 70 355 0.0 0.0 0.00 0.00 0.00
20260508155615 69 316 0.0 0.0 0.00 0.00 0.00
20260508155102 68 337 0.0 0.0 0.00 0.00 0.00
20260508154549 68 142 0.0 0.0 0.00 0.00 0.00
20260508154036 68 153 0.0 0.0 0.00 0.00 0.00
20260508153523 67 183 0.0 0.0 0.00 0.00 0.00
20260508152458 67 337 0.0 0.0 0.00 0.00 0.00
20260508151945 67 150 0.0 0.0 0.00 0.00 0.00
20260508151432 67 158 0.0 0.0 0.00 0.00 0.00
20260508150919 67 173 0.0 0.0 0.00 0.00 0.00
20260508150406 67 285 0.0 0.0 0.00 0.00 0.00
20260508145853 67 326 0.0 0.0 0.00 0.00 0.00
20260508145341 65 247 0.0 0.0 0.00 0.00 0.00
20260508144828 63 168 0.0 0.0 0.00 0.00 0.00
20260508144315 62 135 0.0 0.0 0.00 0.00 0.00
20260508143802 60 135 0.0 0.0 0.00 0.00 0.00
20260508143249 58 169 0.0 0.0 0.00 0.00 0.00
20260508141711 49 261 0.0 0.0 0.00 0.00 0.00
20260508141158 48 144 0.0 0.0 0.00 0.00 0.00
20260508140645 48 162 0.0 0.0 0.00 0.00 0.00
20260508140132 47 122 0.0 0.0 0.00 0.00 0.00
20260508135619 46 135 0.0 0.0 0.00 0.00 0.00
20260508135106 46 90 0.0 0.0 0.00 0.00 0.00
20260508134554 46 129 0.0 0.0 0.00 0.00 0.00
20260508134041 46 348 0.0 0.0 0.00 0.00 0.00
20260508133528 44 116 0.0 0.0 0.00 0.00 0.00
20260508133015 41 22 0.0 0.0 0.00 0.00 0.00
20260508132502 39 348 0.0 0.0 0.00 0.00 0.00
20260508131949 37 337 0.0 0.0 0.00 0.00 0.00
20260508130924 36 337 0.0 0.0 0.00 0.00 0.00
20260508130411 36 337 0.0 0.0 0.00 0.00 0.00
20260508125858 35 337 0.0 0.0 0.00 0.00 0.00
20260508124832 35 337 0.0 0.0 0.00 0.00 0.00
20260508124319 35 337 0.0 0.0 0.00 0.00 0.00
20260508123807 35 337 0.0 0.0 0.00 0.00 0.00
20260508122741 35 337 0.0 0.0 0.00 0.00 0.00
20260508122228 35 337 0.0 0.0 0.00 0.00 0.00
20260508121715 35 191 0.0 0.0 0.00 0.00 0.00
20260508121202 35 337 0.0 0.0 0.00 0.00 0.00
20260508120649 35 337 0.0 0.0 0.00 0.00 0.00
20260508120137 35 337 0.0 0.0 0.00 0.00 0.00
20260508115624 35 91 0.0 0.0 0.00 0.00 0.00
20260508115111 36 97 0.0 0.0 0.00 0.00 0.00
20260508114558 36 22 0.0 0.0 0.00 0.00 0.00
20260508114045 36 95 0.0 0.0 0.00 0.00 0.00
20260508113533 36 93 0.0 0.0 0.00 0.00 0.00
20260508113020 36 232 0.0 0.0 0.00 0.00 0.00
20260508112507 36 112 0.0 0.0 0.00 0.00 0.00
20260508111954 36 337 0.0 0.0 0.00 0.00 0.00
20260508111441 36 21 0.0 0.0 0.00 0.00 0.00
20260508110928 36 315 0.0 0.0 0.00 0.00 0.00
20260508110415 36 337 0.0 0.0 0.00 0.00 0.00
20260508105902 36 157 0.0 0.0 0.00 0.00 0.00
20260508105350 36 315 0.0 0.0 0.00 0.00 0.00
20260508104837 36 337 0.0 0.0 0.00 0.00 0.00
20260508104324 36 292 0.0 0.0 0.00 0.00 0.00
20260508103811 37 93 0.0 0.0 0.00 0.00 0.00
20260508103258 37 90 0.0 0.0 0.00 0.00 0.00
20260508102745 37 112 0.0 0.0 0.00 0.00 0.00
20260508102232 37 90 0.0 0.0 0.00 0.00 0.00
20260508101719 37 270 0.0 0.0 0.00 0.00 0.00
20260508101207 37 180 0.0 0.0 0.00 0.00 0.00
20260508100654 38 90 0.0 0.0 0.00 0.00 0.00
20260508100141 39 315 0.0 0.0 0.00 0.00 0.00
20260508095628 39 90 0.0 0.0 0.00 0.00 0.00
20260508095115 39 337 0.0 0.0 0.00 0.00 0.00
20260508094603 40 91 0.0 0.0 0.00 0.00 0.00
20260508094050 40 67 0.0 0.0 0.00 0.00 0.00
20260508093537 40 337 0.0 0.0 0.00 0.00 0.00
20260508093024 40 95 0.0 0.0 0.00 0.00 0.00
20260508092511 40 337 0.0 0.0 0.00 0.00 0.00
20260508091445 40 337 0.0 0.0 0.00 0.00 0.00
20260508090933 40 69 0.0 0.0 0.00 0.00 0.00
20260508090420 40 236 0.0 0.0 0.00 0.00 0.00
20260508085907 40 191 0.0 0.0 0.00 0.00 0.00
20260508085354 40 187 0.0 0.0 0.00 0.00 0.00
20260508084841 40 337 0.0 0.0 0.00 0.00 0.00
20260508084328 40 337 0.0 0.0 0.00 0.00 0.00
20260508083816 40 292 0.0 0.0 0.00 0.00 0.00
20260508083303 40 337 0.0 0.0 0.00 0.00 0.00
20260508082750 40 337 0.0 0.0 0.00 0.00 0.00
20260508082237 40 337 0.0 0.0 0.00 0.00 0.00
20260508081724 41 337 0.0 0.0 0.00 0.00 0.00
20260508081211 41 22 0.0 0.0 0.00 0.00 0.00
20260508080658 41 337 0.0 0.0 0.00 0.00 0.00
20260508080146 42 90 0.0 0.0 0.00 0.00 0.00
20260508075633 42 175 0.0 0.0 0.00 0.00 0.00
20260508075120 42 22 0.0 0.0 0.00 0.00 0.00
20260508074055 43 90 0.0 0.0 0.00 0.00 0.00
20260508073541 43 90 0.0 0.0 0.00 0.00 0.00
20260508073029 43 337 0.0 0.0 0.00 0.00 0.00
20260508072516 43 337 0.0 0.0 0.00 0.00 0.00
20260508072003 44 0 0.0 0.0 0.00 0.00 0.00